Content
SEND FEEDBACK

Daily
Averages
Monthly
Summary
Algeria

ANNABA, ALGERIA


Home > Africa > Algeria
Elevation: 13 feet     Latitude: 36 50N     Longitude: 007 49E

WEATHER
 
SELECT A DAY
Number of Records: 268,441;   Date Range: 2/20/97 - 9/30/14
 
SHARE

PRINT THIS DATA

[ ← Previous Day ]
WEATHER ALMANAC - JANUARY 31, 2013
[ Next Day → ]
[ °C ]   °F
Weather ElementAverageHighLow
Temperature54.8 °F68 °F (1:30 pm)44.6 °F (12:30 am)
Dewpoint49.7 °F60.8 °F (2:00 pm)42.8 °F (12:30 am)
Humidity83.2 %94 % (7:00 am)46 % (1:00 pm)
Barometer30.40 in30.45 in (10:30 am)30.36 in (12:30 am)
Wind Speed8.9 mph15 mph (1:00 pm)
Weather ElementAverage
Visibility8.6 mi
Wind DirectionSSW (213.5 °)

Weather ElementTotal
Precipitation---
Heating Degree Days8.7 (Base 65)
Growing Degree Days6.3 (Base 50)
Averaged from 54 records on January 31, 2013
WEATHER CONDITIONS BREAKOUT
WIND DIRECTION BREAKOUT
WEATHER BY HOUR - JANUARY 31, 2013
[ °C ]   °F
Local TimeTemperatureDewpointHumidityBarometerVisibilityWind DirectionWind SpeedGust SpeedPrecipitationEventsConditions
12:30 AM44.6 °F42.8 °F93 %30.36 inWSW (240°)4.6 mphClear
1:00 AM46.0 °F44.0 °F91 %30.38 in6.0 miWest (270°)5.8 mphClear
1:00 AM46.4 °F44.6 °F93 %30.36 inWest (270°)5.8 mphClear
1:30 AM44.6 °F42.8 °F93 %30.36 inWNW (290°)6.9 mphClear
2:00 AM44.6 °F42.8 °F93 %30.36 inWSW (240°)9.2 mphClear
2:30 AM46.4 °F44.6 °F93 %30.36 inWSW (240°)10.4 mphClear
3:00 AM46.4 °F44.6 °F93 %30.36 inWSW (240°)10.4 mphClear
3:30 AM46.4 °F44.6 °F93 %30.36 inWSW (250°)11.5 mphClear
4:00 AM46.0 °F44.0 °F92 %30.37 in6.0 miWSW (240°)12.7 mphClear
4:00 AM46.4 °F44.6 °F93 %30.36 inWSW (240°)12.7 mphClear
4:30 AM46.4 °F44.6 °F93 %30.36 inWSW (240°)12.7 mphClear
5:00 AM46.4 °F44.6 °F93 %30.36 inWSW (240°)12.7 mphClear
5:30 AM48.2 °F44.6 °F87 %30.36 inWSW (240°)13.8 mphClear
6:00 AM48.2 °F44.6 °F87 %30.36 inWSW (250°)9.2 mphClear
6:30 AM50.0 °F44.6 °F82 %30.36 inWSW (250°)10.4 mphClear
7:00 AM51.0 °F49.0 °F90 %30.38 in9.0 miWSW (250°)11.5 mphClear
7:00 AM50.0 °F48.2 °F94 %30.36 inWSW (250°)11.5 mphClear
7:30 AM51.8 °F42.8 °F71 %30.39 inWest (260°)13.8 mphClear
8:00 AM50.0 °F44.6 °F82 %30.39 inWest (260°)12.7 mphClear
8:30 AM51.8 °F46.4 °F82 %30.42 inSSW (200°)13.8 mphClear
9:00 AM53.6 °F46.4 °F77 %30.42 inWest (260°)12.7 mphClear
9:30 AM55.4 °F51.8 °F88 %30.42 inWSW (250°)12.7 mphClear
10:00 AM57.0 °F51.0 °F72 %30.43 in9.0 miWSW (250°)10.4 mphClear
10:00 AM57.2 °F50.0 °F77 %30.42 inWSW (250°)5.8 mphClear
10:30 AM59.0 °F50.0 °F72 %30.45 inWest (260°)9.2 mphClear
11:00 AM60.8 °F51.8 °F72 %30.45 inWSW (250°)11.5 mphClear
11:30 AM64.4 °F51.8 °F64 %30.45 inWest (260°)11.5 mphClear
12:00 PM64.4 °F50.0 °F59 %30.45 inWSW (250°)12.7 mphClear
12:30 PM66.2 °F53.6 °F64 %30.42 inWest (260°)12.7 mphClear
1:00 PM66.0 °F50.0 °F46 %30.42 in12.0 miWest (260°)15.0 mphClear
1:00 PM66.2 °F51.8 °F60 %30.42 inWest (260°)15.0 mphClear
1:30 PM68.0 °F55.4 °F64 %30.42 inWest (260°)8.1 mphClear
2:00 PM66.2 °F60.8 °F83 %30.39 inNE (50°)10.4 mphClear
2:30 PM66.2 °F60.8 °F83 %30.39 inEast (90°)4.6 mphClear
3:00 PM66.2 °F59.0 °F78 %30.39 inESE (110°)3.5 mphClear
3:30 PM68.0 °F59.0 °F73 %30.39 inENE (70°)6.9 mphClear
4:00 PM66.0 °F57.0 °F65 %30.40 in9.0 miENE (60°)4.6 mphClear
4:00 PM66.2 °F57.2 °F73 %30.39 inENE (60°)4.6 mphClear
4:30 PM66.2 °F55.4 °F68 %30.39 inENE (70°)6.9 mphClear
5:00 PM62.6 °F57.2 °F82 %30.39 inNE (50°)9.2 mphClear
5:30 PM62.6 °F59.0 °F88 %30.42 inNNE (20°)6.9 mphClear
6:00 PM60.8 °F57.2 °F88 %30.42 inNNE (30°)6.9 mphClear
6:30 PM57.2 °F55.4 °F94 %30.42 inNorth (350°)2.3 mphClear
7:00 PM55.0 °F52.0 °F87 %30.42 in12.0 miSW (220°)4.6 mphClear
7:00 PM55.4 °F51.8 °F88 %30.42 inSW (220°)4.6 mphClear
8:00 PM53.6 °F51.8 °F94 %30.42 inSW (220°)6.9 mphClear
8:30 PM51.8 °F50.0 °F94 %30.42 inWSW (240°)5.8 mphClear
9:00 PM51.8 °F50.0 °F94 %30.42 inSSW (210°)3.5 mphClear
9:30 PM50.0 °F48.2 °F94 %30.42 inWSW (240°)5.8 mphClear
10:00 PM50.0 °F48.0 °F90 %30.42 in6.0 miSW (230°)6.9 mph
10:00 PM50.0 °F48.2 °F94 %30.42 inSW (230°)6.9 mphClear
10:30 PM48.2 °F46.4 °F93 %30.39 inWSW (240°)5.8 mphClear
11:00 PM48.2 °F46.4 °F93 %30.39 inWSW (250°)6.9 mphClear
11:30 PM48.2 °F46.4 °F93 %30.39 inWSW (240°)4.6 mphClear
Hourly data recorded from DABB, located miles away from Annaba, Algeria







STORIES FROM OUR PARTNERS